Flag for U.S.A. Weather past 2 weeks in Louisville, Kentucky, U.S.A.

Now
81 °F

Light rain. Cloudy.


Feels Like: 85 °F
Forecast: 73 / 89 °F
Wind: 10 mph from South

Location: Standiford Field

Current Time: Jul 23, 2014 at 12:56:24 PM

Latest Report: Jul 23, 2014 at 11:56 AM


Visibility: 6 mi

Pressure: 30.03 "Hg

Humidity: 74%

Dew point: 72 °F

Location of LouisvilleLocation

Historic Weather in Louisville — Graph

°F

Louisville temperature yesterday

Maximum temperature yesterday: 90 °F (at 7:56 PM)
Minimum temperature yesterday: 71 °F (at 6:56 AM)
Average temperature yesterday: 80 °F

Past Weeks' High & Low Weather Summary

 TemperatureHumidityPressure
High97 °F (Jul 13, 3:56 PM)97% (Jul 18, 11:56 PM)30.19 "Hg (Jul 18, 11:56 PM)
Low58 °F (Jul 16, 5:56 AM)31% (Jul 17, 12:56 PM)29.82 "Hg (Jul 8, 5:56 PM)
Average76 °F64%30.02 "Hg
* Reported Jul 8 11:56 AM — Jul 23 11:56 AM, Louisville, Weather by CustomWeather, © 2014

Note: Actual official high and low records may vary slightly from our data, if they occured in-between our weather recording intervals... More about our weather records

Advertising

Louisville weather history for previous 24 hours

 ConditionsComfort  
Time TempWeatherWind HumidityBarometerVisibility
11:56 AM
Jul 23
81 °FLight rain. Cloudy.10 mph74%30.03 "Hg6 mi
10:56 AM82 °FMostly cloudy.6 mph67%30.06 "Hg7 mi
9:56 AM83 °FPartly sunny.No wind68%30.05 "Hg7 mi
8:56 AM80 °FMostly cloudy.5 mph74%30.05 "Hg7 mi
7:56 AM80 °FPassing clouds.No wind74%30.03 "Hg7 mi
6:56 AM78 °FPartly cloudy.No wind76%30.01 "Hg8 mi
5:56 AM76 °FPassing clouds.3 mph85%30.02 "Hg8 mi
4:56 AM78 °FPassing clouds.3 mph76%30.00 "Hg10 mi
3:56 AM79 °FPartly cloudy.5 mph74%30.00 "Hg10 mi
1:56 AM81 °FPassing clouds.No wind74%30.01 "Hg10 mi
12:56 AM81 °FPassing clouds.5 mph74%30.01 "Hg10 mi
11:56 PM
Jul 22
82 °FPassing clouds.3 mph67%30.03 "Hg10 mi
10:56 PM83 °FPassing clouds.6 mph68%30.03 "Hg10 mi
9:56 PM86 °FScattered clouds.5 mph61%30.01 "Hg10 mi
8:56 PM88 °FPassing clouds.7 mph55%30.01 "Hg10 mi
7:56 PM90 °FPassing clouds.8 mph52%30.00 "Hg10 mi
12:56 PM89 °FScattered clouds.6 mph52%30.07 "Hg10 mi
Weather by CustomWeather, © 2014

See weather overviewHow to use our weather pages